Powrót do katalogu

SL-12 R/B(2)

AktywnyGEO
NORAD 16870·ROCKET BODY·🇷🇺 Russia

Wystrzelony Jan 17, 1986 z Baikonur Cosmodrome

Loading…

TLE

ŚwieżeSource: Space-Track

Epoka: Sep 14, 2026, 22:20 UTC

1 16870U 86007F   26257.93110078 -.00000175  00000-0  00000-0 0  9998
2 16870  10.9218 322.0497 0031154 179.8289 185.5143  0.97801152143525

Śledź SL-12 R/B(2) w czasie rzeczywistym z AllMySat

Download on the App Store